Precipitable_Water
0.75 0.77 0.79 0.81 0.82 0.84 0.84 0.84 0.87 0.91 0.96 1.02 1.09 1.09 1.03 0.96 0.93 0.84 0.61 0.82 1.19 1.27 1.19 1.06 1.01 0.96 0.95 0.83 0.82 0.77 0.49 0.28 0.27 0.28 0.36 0.48 0.54 0.71 0.76 0.69 0.69 0.71 0.73 0.80 0.90
0.71 0.73 0.75 0.78 0.79 0.79 0.80 0.83 0.84 0.87 0.90 0.93 1.04 1.09 1.07 0.99 0.83 0.71 0.80 0.84 1.14 1.31 1.07 0.92 0.83 0.90 0.79 0.75 0.75 0.67 0.53 0.37 0.40 0.33 0.40 0.48 0.52 0.58 0.62 0.65 0.66 0.69 0.84 0.88 0.89
0.75 0.75 0.73 0.77 0.78 0.79 0.80 0.82 0.86 0.87 0.86 0.90 0.91 1.03 1.06 1.02 0.70 0.62 0.82 0.78 0.99 1.31 1.17 1.07 0.97 0.88 0.72 0.73 0.70 0.67 0.56 0.54 0.44 0.44 0.46 0.46 0.48 0.57 0.53 0.55 0.66 0.65 0.73 0.84 0.86
0.76 0.77 0.78 0.77 0.78 0.77 0.82 0.83 0.82 0.82 0.85 0.86 0.86 0.91 1.01 0.94 0.44 0.72 0.80 0.75 0.97 1.27 1.15 1.00 0.91 0.75 0.64 0.61 0.72 0.60 0.68 0.65 0.49 0.47 0.45 0.42 0.49 0.49 0.54 0.59 0.67 0.70 0.72 0.79 0.78
0.77 0.78 0.78 0.76 0.72 0.70 0.77 0.81 0.84 0.86 0.85 0.85 0.84 0.83 0.89 0.70 0.63 0.89 0.94 0.83 0.86 1.20 1.02 0.89 0.79 0.75 0.61 0.65 0.70 0.64 0.68 0.70 0.55 0.49 0.45 0.46 0.42 0.45 0.50 0.60 0.63 0.69 0.73 0.73 0.75
0.86 0.83 0.74 0.75 0.75 0.73 0.70 0.74 0.78 0.87 0.84 0.81 0.86 0.83 0.72 0.52 0.80 0.98 0.93 0.85 0.79 1.13 0.99 0.97 0.82 0.84 0.73 0.68 0.67 0.69 0.67 0.68 0.55 0.46 0.43 0.40 0.38 0.42 0.41 0.53 0.55 0.59 0.67 0.72 0.74
0.92 0.89 0.79 0.80 0.80 0.75 0.75 0.75 0.76 0.85 0.89 0.80 0.85 0.82 0.64 0.57 0.79 0.91 0.87 0.88 0.88 1.22 1.11 1.03 0.95 0.83 0.82 0.70 0.79 0.69 0.58 0.63 0.53 0.44 0.40 0.44 0.35 0.31 0.37 0.47 0.46 0.52 0.59 0.63 0.67
1.00 0.94 0.93 0.89 0.83 0.82 0.76 0.79 0.78 0.83 0.82 0.82 0.86 0.82 0.50 0.72 0.83 0.88 0.91 0.83 0.90 1.20 1.13 1.09 1.07 0.97 0.81 0.82 0.70 0.55 0.55 0.48 0.44 0.31 0.36 0.40 0.26 0.35 0.45 0.45 0.41 0.45 0.53 0.55 0.57
1.06 1.05 1.02 0.98 0.88 0.82 0.77 0.79 0.81 0.80 0.84 0.83 0.82 0.72 0.45 0.75 0.69 0.79 0.89 0.76 0.78 1.13 1.21 1.28 1.02 0.83 0.84 0.69 0.56 0.51 0.42 0.44 0.32 0.35 0.38 0.37 0.29 0.40 0.47 0.49 0.46 0.50 0.49 0.50 0.52
1.08 1.11 1.11 1.06 1.00 0.89 0.82 0.85 0.88 0.87 0.85 0.89 0.85 0.62 0.58 0.46 0.62 0.82 0.88 0.85 0.78 0.98 1.08 1.05 0.98 0.77 0.72 0.61 0.38 0.42 0.44 0.42 0.31 0.36 0.41 0.39 0.36 0.42 0.46 0.47 0.43 0.42 0.43 0.44 0.46
1.11 1.11 1.09 1.09 1.09 1.03 0.92 0.88 0.72 0.67 0.74 0.58 0.56 0.53 0.54 0.60 0.76 0.78 0.87 0.86 0.82 0.87 0.71 0.89 0.74 0.59 0.66 0.64 0.60 0.56 0.44 0.40 0.37 0.36 0.36 0.37 0.39 0.41 0.42 0.42 0.37 0.41 0.42 0.44 0.48
1.11 1.11 1.11 1.10 1.08 1.05 0.95 0.77 0.72 0.76 0.54 0.67 0.65 0.63 0.74 0.66 0.56 0.81 1.06 0.80 0.68 0.56 0.74 0.71 0.58 0.72 0.77 0.72 0.60 0.58 0.42 0.38 0.39 0.38 0.39 0.40 0.38 0.38 0.37 0.39 0.41 0.42 0.44 0.48 0.52
1.13 1.16 1.14 1.13 1.09 1.04 0.88 0.84 1.02 0.87 0.49 0.50 0.57 0.54 0.67 0.67 0.59 0.65 0.97 0.89 0.65 0.58 0.65 0.62 0.70 0.85 0.71 0.66 0.57 0.50 0.39 0.39 0.37 0.38 0.39 0.38 0.35 0.32 0.34 0.40 0.47 0.48 0.49 0.53 0.52
1.17 1.20 1.19 1.16 0.98 0.99 0.89 1.05 0.99 0.93 0.39 0.38 0.47 0.57 0.74 0.66 0.64 0.93 1.05 0.95 0.69 0.53 0.65 0.68 0.77 0.71 0.69 0.59 0.56 0.38 0.47 0.42 0.38 0.32 0.25 0.40 0.23 0.29 0.32 0.37 0.44 0.46 0.47 0.48 0.51
1.19 1.23 1.22 1.19 1.03 0.89 1.00 1.09 1.06 0.90 0.28 0.52 0.59 0.88 0.79 0.66 0.69 0.78 1.11 0.96 0.63 0.59 0.61 0.54 0.59 0.64 0.61 0.54 0.50 0.43 0.48 0.41 0.37 0.31 0.28 0.31 0.28 0.28 0.36 0.36 0.42 0.46 0.48 0.49 0.53
1.19 1.24 1.23 1.14 1.11 1.08 1.17 1.14 0.98 0.50 0.31 0.52 0.70 0.67 0.64 0.73 0.70 0.85 0.94 1.00 0.90 0.67 0.66 0.57 0.74 0.71 0.61 0.55 0.54 0.55 0.44 0.39 0.36 0.30 0.18 0.25 0.27 0.24 0.29 0.33 0.41 0.47 0.48 0.48 0.51
1.12 1.22 1.23 1.24 0.99 1.22 1.17 0.94 0.52 0.36 0.56 0.51 0.57 0.66 0.64 0.60 0.63 0.73 0.75 0.72 0.63 0.50 0.50 0.55 0.59 0.60 0.56 0.50 0.53 0.46 0.37 0.24 0.22 0.20 0.14 0.26 0.24 0.22 0.32 0.36 0.39 0.42 0.46 0.49 0.52
1.04 1.14 1.16 1.19 1.29 1.26 1.06 0.71 0.42 0.50 0.51 0.66 0.63 0.64 0.57 0.61 0.66 0.70 0.67 0.58 0.68 0.59 0.49 0.42 0.38 0.52 0.54 0.50 0.42 0.37 0.36 0.24 0.15 0.16 0.18 0.27 0.21 0.24 0.34 0.36 0.41 0.45 0.50 0.53 0.53
0.94 0.97 0.97 1.09 1.26 1.24 0.87 0.55 0.50 0.56 0.63 0.59 0.60 0.55 0.56 0.63 0.62 0.65 0.64 0.59 0.61 0.58 0.41 0.45 0.42 0.52 0.50 0.49 0.43 0.33 0.29 0.38 0.31 0.33 0.24 0.27 0.29 0.32 0.35 0.35 0.41 0.45 0.50 0.52 0.55
0.76 0.85 0.96 1.22 1.27 1.12 0.78 0.60 0.65 0.74 0.70 0.66 0.50 0.58 0.50 0.55 0.55 0.58 0.60 0.64 0.59 0.63 0.64 0.51 0.40 0.49 0.47 0.45 0.40 0.37 0.39 0.28 0.32 0.19 0.18 0.23 0.24 0.22 0.30 0.35 0.42 0.46 0.50 0.55 0.57
0.78 0.72 1.05 1.23 1.21 0.95 0.64 0.66 0.73 0.78 0.81 0.70 0.59 0.54 0.53 0.50 0.55 0.56 0.57 0.67 0.65 0.62 0.65 0.50 0.41 0.40 0.42 0.35 0.31 0.34 0.31 0.31 0.32 0.27 0.18 0.16 0.20 0.33 0.35 0.42 0.45 0.51 0.55 0.56 0.58
0.73 0.59 1.07 1.17 0.77 0.81 0.71 0.77 0.85 0.81 0.89 0.79 0.66 0.60 0.58 0.59 0.57 0.58 0.55 0.62 0.70 0.67 0.56 0.55 0.42 0.29 0.34 0.42 0.44 0.41 0.37 0.34 0.23 0.21 0.26 0.25 0.25 0.43 0.44 0.48 0.51 0.51 0.53 0.57 0.60
0.67 0.75 1.06 1.09 0.63 0.68 0.77 0.77 0.85 0.81 0.80 0.74 0.72 0.74 0.73 0.66 0.58 0.60 0.61 0.71 0.72 0.66 0.61 0.56 0.43 0.27 0.34 0.42 0.46 0.39 0.38 0.37 0.35 0.35 0.28 0.27 0.30 0.44 0.44 0.42 0.45 0.48 0.54 0.57 0.59
0.66 0.61 0.73 0.84 0.83 0.73 0.69 0.67 0.71 0.88 0.81 0.81 0.77 0.79 0.73 0.62 0.65 0.58 0.59 0.69 0.74 0.68 0.70 0.65 0.49 0.37 0.28 0.32 0.39 0.34 0.37 0.40 0.39 0.33 0.34 0.34 0.33 0.37 0.40 0.43 0.49 0.51 0.53 0.55 0.59
0.63 0.63 0.69 0.58 0.66 0.70 0.71 0.67 0.65 0.67 0.82 0.83 0.73 0.71 0.66 0.59 0.60 0.59 0.64 0.64 0.69 0.68 0.62 0.53 0.40 0.41 0.41 0.42 0.42 0.43 0.43 0.44 0.40 0.39 0.31 0.30 0.30 0.34 0.40 0.44 0.46 0.48 0.51 0.56 0.59
0.51 0.62 0.69 0.66 0.68 0.65 0.64 0.63 0.64 0.66 0.69 0.70 0.69 0.69 0.69 0.59 0.61 0.58 0.63 0.62 0.57 0.63 0.59 0.59 0.46 0.48 0.42 0.43 0.40 0.36 0.39 0.38 0.36 0.36 0.34 0.34 0.32 0.47 0.53 0.53 0.50 0.52 0.53 0.54 0.56
0.66 0.72 0.63 0.57 0.54 0.52 0.53 0.53 0.60 0.67 0.70 0.73 0.72 0.69 0.66 0.64 0.69 0.78 0.76 0.72 0.67 0.60 0.56 0.52 0.48 0.42 0.36 0.42 0.39 0.31 0.32 0.32 0.31 0.32 0.35 0.37 0.43 0.43 0.39 0.42 0.46 0.49 0.51 0.52 0.53
Wind_Speed
28 29 31 33 35 37 39 40 42 42 42 43 43 43 42 41 41 42 43 38 37 31 28 28 26 23 19 17 15 12 9 11 12 12 13 12 9 9 9 9 10 10 10 11 10
27 27 28 30 31 32 35 36 39 41 42 42 42 42 42 42 42 45 41 41 39 34 29 28 27 24 20 18 16 13 12 13 13 13 14 14 13 13 10 11 11 11 12 11 11
26 26 25 25 27 29 31 33 35 37 40 41 42 42 42 41 42 43 44 43 41 36 33 29 27 25 23 19 17 15 15 14 15 16 16 15 15 14 13 13 13 13 13 14 13
23 23 21 20 23 25 28 31 33 36 37 40 41 42 41 41 38 35 43 44 43 39 34 31 29 26 23 21 20 16 17 16 16 16 16 16 16 16 16 16 14 16 15 14 15
21 20 17 16 16 18 24 29 32 34 36 38 40 41 42 43 43 33 35 44 45 41 36 34 30 26 23 21 20 18 16 17 18 18 18 18 17 17 17 18 15 15 15 16 16
20 18 16 16 16 17 19 22 29 33 35 36 38 40 42 44 42 34 32 43 45 42 38 35 29 26 24 22 20 17 17 17 17 17 16 17 18 16 17 17 17 16 17 17 17
19 18 16 15 14 14 16 19 24 29 33 36 38 39 42 42 38 37 35 40 45 43 36 33 28 27 22 21 20 18 17 16 18 18 16 15 16 17 18 16 18 17 17 18 19
18 17 15 13 12 11 10 13 18 26 30 33 36 39 39 40 43 39 37 39 43 41 37 33 29 26 22 21 17 16 14 13 13 13 16 15 15 16 14 13 18 19 15 16 17
19 17 13 12 10 7 5 6 11 20 27 30 33 37 35 39 42 42 40 37 41 41 38 33 30 28 24 20 17 15 14 14 13 13 12 14 14 13 12 12 13 14 14 14 13
19 18 14 10 7 5 5 7 8 13 21 26 29 33 33 37 39 40 39 41 39 40 38 34 29 28 25 23 20 16 15 13 12 11 13 14 16 14 13 14 14 12 12 12 11
19 17 13 9 6 0 6 6 7 11 19 22 29 29 29 37 39 39 39 40 41 41 38 37 32 31 29 24 20 17 14 13 13 14 14 16 15 17 14 12 11 11 10 10 10
17 15 13 7 4 4 7 5 7 12 16 18 22 30 26 36 37 37 39 38 44 43 40 32 36 31 27 25 22 20 17 14 13 12 12 13 16 16 12 11 11 10 9 9 9
16 13 10 7 6 6 5 5 5 14 12 17 21 30 27 35 37 40 39 36 43 43 43 31 29 29 25 23 23 20 19 15 12 11 12 13 15 12 10 9 9 9 9 8 7
15 13 9 8 7 5 5 9 13 14 12 16 20 24 29 34 33 36 36 33 36 42 37 30 28 31 26 25 22 20 19 18 14 11 13 10 12 12 13 11 10 9 8 7 7
16 12 9 8 10 7 11 15 17 10 12 17 19 21 30 32 35 32 32 33 39 41 32 30 32 33 27 23 22 19 17 15 13 12 12 14 11 13 12 13 13 12 10 9 8
13 11 9 10 11 5 8 10 6 6 10 13 17 22 29 29 33 33 27 32 32 32 27 23 29 28 26 22 21 17 14 11 11 11 13 16 14 12 14 15 14 12 12 10 9
11 10 8 11 11 5 7 6 4 5 15 17 18 23 24 29 33 32 29 31 30 32 29 23 27 26 24 20 18 16 13 12 12 12 15 11 12 16 15 14 16 14 13 11 10
13 9 9 9 10 3 5 4 5 12 12 17 22 23 20 35 27 29 27 27 28 26 26 26 27 28 25 23 20 19 17 13 14 13 13 11 14 13 13 14 14 14 13 12 11
12 6 7 7 7 7 7 4 8 10 16 20 23 20 22 26 25 27 24 27 25 28 23 23 22 23 21 21 20 19 17 16 11 11 10 13 14 12 9 10 12 13 13 12 12
6 4 6 5 7 8 5 8 9 12 19 17 16 21 23 28 26 26 26 24 25 26 21 21 17 20 20 20 19 17 17 13 12 12 12 12 13 12 9 11 12 13 13 13 13
3 2 4 6 8 6 7 9 12 18 15 10 17 22 26 27 25 25 21 23 24 24 19 21 17 19 19 21 20 17 16 13 12 11 10 9 11 10 12 13 13 13 13 14 14
2 2 3 9 5 6 8 9 11 12 10 13 26 30 24 25 21 18 21 20 21 21 19 17 16 17 17 16 18 18 18 15 12 11 10 8 9 8 8 11 11 14 15 15 16
2 1 5 6 4 6 8 11 10 11 13 21 18 18 22 21 18 19 20 19 19 19 18 18 14 15 14 14 17 17 17 15 12 10 11 8 10 8 6 9 12 13 15 17 19
1 1 5 7 5 10 9 8 10 12 15 18 17 20 18 13 14 19 18 17 17 18 15 14 13 15 16 13 14 16 16 15 13 11 12 13 11 11 12 12 14 16 21 20 19
3 3 6 8 8 10 8 9 10 11 14 14 12 16 16 15 15 15 16 16 15 15 14 13 12 11 12 12 11 13 15 16 16 14 13 11 13 14 17 19 22 23 19 17 18
6 5 8 10 9 9 6 7 10 11 10 12 16 14 14 13 11 15 16 15 15 14 13 11 13 11 10 9 9 12 13 15 15 15 16 15 18 15 14 15 15 17 16 18 19
9 8 9 7 7 8 8 9 10 11 9 12 16 16 13 11 11 13 12 12 13 13 12 12 12 11 12 10 11 14 15 16 16 16 15 14 13 13 15 14 15 18 18 19 20
Wind_Direction
297 289 278 270 263 256 252 247 243 240 237 234 231 229 228 227 226 225 224 221 218 219 220 221 223 226 230 232 231 229 235 238 236 230 235 254 258 253 254 244 243 247 239 246 230
303 295 284 274 263 256 250 245 241 237 235 232 228 227 227 226 226 226 222 218 217 217 218 218 220 222 224 227 227 226 229 237 234 237 246 256 254 255 261 263 246 250 245 241 232
307 300 290 277 264 256 249 244 239 236 232 229 226 225 224 224 226 225 221 217 215 215 217 216 219 218 222 222 224 228 232 243 249 249 247 250 254 250 256 257 247 247 247 241 240
314 309 297 283 270 258 248 244 239 233 230 226 224 222 220 219 220 219 217 213 211 211 214 213 216 215 219 221 228 235 240 244 254 252 250 247 252 253 251 249 253 256 248 238 241
320 315 306 290 281 265 251 244 237 229 226 223 220 218 215 216 215 216 213 208 207 208 210 210 212 213 217 222 228 234 243 248 257 257 251 249 249 250 253 256 255 254 240 241 245
324 316 310 299 285 274 256 246 233 226 222 220 217 214 215 217 212 215 211 204 205 205 208 208 211 214 220 224 225 233 240 250 257 256 252 246 253 246 253 252 254 251 247 248 248
326 323 313 305 292 280 261 245 230 222 219 217 215 213 214 211 209 212 208 203 203 203 202 205 210 212 216 222 228 237 248 255 254 252 246 247 253 246 251 255 253 250 251 253 252
335 328 316 312 300 286 265 239 225 217 213 213 211 211 214 210 212 209 203 202 202 202 204 205 208 210 217 225 229 234 240 248 259 249 241 228 249 254 254 259 254 251 258 261 263
344 338 328 318 305 281 249 221 210 208 207 206 206 206 208 206 206 206 202 201 198 200 200 201 208 214 216 218 224 229 235 243 266 236 227 222 242 247 249 265 260 258 255 258 263
346 345 338 328 317 264 232 209 198 196 197 196 200 201 205 202 200 199 199 199 195 194 198 203 207 208 214 212 215 220 231 240 244 239 230 228 241 256 260 263 263 256 257 257 259
348 352 351 346 356 298 178 177 173 187 184 191 198 200 199 196 194 195 194 192 191 195 199 201 207 210 209 210 213 219 228 243 252 246 227 233 244 256 264 257 248 249 248 248 254
349 352 357 5 36 111 139 153 182 178 180 193 194 195 193 190 189 188 186 189 191 195 195 200 211 207 208 214 216 223 234 248 256 244 236 242 252 262 252 246 241 236 239 244 254
354 358 10 35 71 101 130 164 153 163 170 182 182 191 190 187 186 188 187 192 191 193 196 202 201 199 206 208 215 221 223 237 242 255 254 249 260 246 247 242 240 240 240 244 241
8 8 18 53 52 84 106 121 122 132 140 166 177 182 185 182 181 185 188 192 190 192 195 205 201 200 207 213 210 224 226 234 244 249 243 246 252 246 236 235 238 234 234 232 242
8 15 33 64 41 86 111 118 118 113 119 145 153 158 168 175 177 184 187 194 188 189 195 202 198 200 206 211 211 224 221 231 240 244 251 246 248 252 228 241 235 236 231 236 249
7 14 40 29 17 101 123 127 116 146 132 152 155 162 168 181 177 175 184 184 184 187 195 199 198 201 207 211 213 211 217 233 240 241 248 240 231 252 231 236 233 237 234 237 250
345 356 354 1 12 94 126 118 102 132 146 140 148 151 164 168 167 179 178 174 183 183 191 201 201 203 204 203 207 208 211 230 239 241 240 243 238 250 243 239 226 229 233 239 250
333 325 342 351 5 83 143 107 102 135 146 147 148 143 149 158 168 169 174 176 185 181 186 197 196 199 203 206 208 211 212 219 231 234 244 242 247 253 254 241 227 226 231 240 248
329 336 348 357 33 89 109 90 116 139 140 139 141 149 148 155 168 171 173 180 182 187 186 188 202 200 206 205 204 212 217 225 233 243 247 245 258 259 264 230 218 219 229 239 250
333 347 356 44 89 82 86 86 107 129 143 150 149 162 155 151 161 164 175 180 178 184 186 188 188 200 202 202 210 211 212 222 233 234 245 256 257 252 245 221 215 222 231 246 258
353 4 16 104 96 81 82 96 97 136 130 149 165 152 150 158 158 166 171 171 176 178 182 184 189 196 196 205 204 210 218 221 224 227 234 249 255 245 239 225 221 232 242 255 264
347 0 149 142 76 85 90 117 116 143 148 133 131 142 155 154 154 157 161 168 174 176 177 184 183 189 200 205 209 213 215 214 220 231 235 233 256 264 257 232 233 245 257 266 271
46 45 157 168 118 107 106 101 110 128 141 144 143 151 150 156 158 164 162 167 170 177 180 184 187 184 196 209 212 215 216 217 219 227 231 229 255 266 269 236 256 263 269 272 277
172 83 139 162 146 133 124 106 112 113 125 141 142 151 154 157 159 160 164 171 175 179 181 185 188 194 198 203 202 211 213 216 219 227 238 242 255 260 260 263 268 272 279 279 277
172 162 160 149 144 141 125 124 121 117 127 154 143 149 150 148 158 168 173 174 177 183 186 187 185 188 194 199 202 211 216 219 225 233 237 253 254 264 268 272 276 280 280 276 277
176 148 145 143 150 143 138 135 137 133 127 135 155 153 152 156 169 167 171 180 184 186 189 193 193 195 198 209 213 224 229 232 236 242 255 264 274 269 275 283 283 283 279 277 280
184 165 158 165 155 151 159 154 153 144 133 135 143 146 142 163 165 165 164 171 179 186 195 201 200 207 217 230 240 243 235 240 244 245 248 254 261 278 285 289 291 286 282 282 286